Miscellaneous Local Product
Issued by NWS Hastings, NE

Home | Current Version | Previous Version | Graphics & Text | Print | Product List | Glossary On
Versions: 1 2 3 4 5 6 7 8 9 10 11 12 13 14 15 16 17 18 19 20 21 22 23 24 25 26 27 28 29 30 31 32 33 34 35 36 37 38 39 40 41 42 43 44 45 46 47 48 49 50
061
AXUS43 KGID 290302
MISGRI

GID CWA HOURLY WEATHER ROUNDUP
NATIONAL WEATHER SERVICE HASTINGS NE
1000 PM CDT THU APR 28 2016

NOTE: "FAIR" INDICATES FEW OR NO CLOUDS BELOW 12,000 FEET WITH NO
SIGNIFICANT WEATHER AND/OR OBSTRUCTIONS TO VISIBILITY.

...SOUTH CENTRAL NEBRASKA...

CITY           SKY/WX    TMP DP  RH WIND       PRES   REMARKS
GRAND ISLAND   CLOUDY    44  40  85 NE8       30.11R
HASTINGS       CLOUDY    46  40  79 N6        30.10R
KEARNEY        CLOUDY    45  39  81 NE3       30.11R
ORD            CLOUDY    42  39  89 N7        30.09R
YORK           CLOUDY    45  41  87 N7        30.10R
AURORA         CLOUDY    45  41  86 NE7       30.10R
LEXINGTON      CLOUDY    45  41  87 CALM      30.10R
HOLDREGE       CLOUDY    45  42  89 CALM      30.10R
HEBRON         CLOUDY    49  43  78 NE6       30.10R

...NEBRASKA PANHANDLE...

CITY           SKY/WX    TMP DP  RH WIND       PRES   REMARKS
CHADRON        CLOUDY    40  36  86 NE3       30.12R
ALLIANCE       CLOUDY    33  32  96 W6        30.10R WCI  28
SCOTTSBLUFF    CLOUDY    38  34  85 NE3       30.11R
SIDNEY         CLOUDY    37  33  85 N8        30.09R WCI  31

...WESTERN AND NORTH CENTRAL NEBRASKA...

CITY           SKY/WX    TMP DP  RH WIND       PRES   REMARKS
VALENTINE      CLOUDY    39  37  92 NW7       30.11R WCI  34
AINSWORTH      CLOUDY    39  38  97 NW7       30.10R WCI  34
ONEILL         CLOUDY    41  39  93 N10       30.09R FOG
BROKEN BOW     CLOUDY    43  39  86 N10       30.08R
IMPERIAL       CLOUDY    44  39  82 N3        30.08R
NORTH PLATTE   CLOUDY    42  39  89 CALM      30.08R
MCCOOK         CLOUDY    45  39  79 NE6       30.09R

...EASTERN NEBRASKA...

CITY           SKY/WX    TMP DP  RH WIND       PRES   REMARKS
NORFOLK        CLOUDY    43  38  82 N8        30.07S
SO SIOUX CITY  CLOUDY    45  39  79 N8        30.09R
TEKAMAH        CLOUDY    45  41  86 N10       30.08R
COLUMBUS       CLOUDY    45  34  65 N6        30.10R
ALBION         CLOUDY    43  38  84 N7        30.08R
OMAHA EPPLEY   CLOUDY    46  41  82 N8        30.09R
MILLARD        CLOUDY    47  40  77 N5        30.08R
LINCOLN        CLOUDY    48  41  76 NE6       30.11R
NEBRASKA CITY  CLOUDY    48  41  77 N6        30.09R
BEATRICE       CLOUDY    49  43  81 N7        30.10R
FALLS CITY     CLOUDY    51  44  77 N6        30.07R

...NORTHERN KANSAS...

CITY           SKY/WX    TMP DP  RH WIND       PRES   REMARKS
GOODLAND       MOCLDY    43  37  79 NE10      30.05R
HILL CITY      CLOUDY    50  43  77 NE8       30.08R
NORTON         CLOUDY    48  39  71 N7        30.09R
PHILLIPSBURG   CLOUDY    50  43  76 CALM      30.09R
SMITH CENTER   CLOUDY    46  43  87 NE3       30.09R
BELOIT         CLOUDY    48  43  81 CALM      30.08R
HAYS           CLOUDY    54  37  54 NE12      30.07R
RUSSELL        MOCLDY    49  44  83 NE7       30.06R
CONCORDIA      CLOUDY    51  42  71 N9        30.09R
SALINA         CLOUDY    55  45  68 NE7       30.07R
TOPEKA         PTCLDY    50  45  83 NE5       30.05R



USA.gov is the U.S. government's official web portal to all federal, state and local government web resources and services.